Regional Weather Roundup
Issued by NWS

Home | Current Version | Previous Version | Text Only | Print | Product List | Glossary Off
Versions: 1 2 3 4 5 6 7 8 9 10 11 12 13 14 15 16 17 18 19 20 21 22 23 24 25 26 27 28 29 30 31 32 33 34 35 36 37 38 39 40 41 42 43 44 45 46 47 48 49 50

000
ASUS43 KMPX 260310
RWRMN
WEATHER ROUNDUP FOR MINNESOTA
NATIONAL WEATHER SERVICE TWIN CITIES/CHANHASSEN MN
900 PM CST THU DEC 25 2014


NOTE: "FAIR" INDICATES FEW OR NO CLOUDS BELOW 12,000 FEET WITH NO
SIGNIFICANT WEATHER AND/OR OBSTRUCTIONS TO VISIBILITY. N/A MEANS
CURRENT SKY AND/OR WEATHER CONDITIONS ARE NOT AVAILABLE.

MNZ060>063-068>070-260400-
   Twin Cities Metro

CITY           SKY/WX    TMP DP  RH WIND       PRES   REMARKS
TWIN CITIES    CLOUDY    33  30  88 N6        29.85F WCI  28
ST PAUL        CLOUDY    34  31  88 N5        29.87S WCI  30
CRYSTAL        CLOUDY    34  31  88 N5        29.85S FOG     WCI  30
BLAINE         CLOUDY    34  34 100 CALM      29.85S FOG
LAKEVILLE      MOCLDY    28  28 100 CALM      29.84R
EDEN PRAIRIE   CLOUDY    33  31  92 N6        29.84S FOG     WCI  28
SOUTH ST PAUL  MOCLDY    33  30  88 N3        29.85S
LAKE ELMO      CLOUDY    32  32 100 N6        29.86F WCI  26
$$
MNZ001>005-007-008-013>017-022>024-027-028-260400-
   Northwest Minnesota

CITY           SKY/WX    TMP DP  RH WIND       PRES   REMARKS
BEMIDJI        CLOUDY    25  22  87 N6        29.89R WCI  18
HALLOCK        CLOUDY    25  21  86 N9        29.96R WCI  15
ROSEAU         CLOUDY    27  21  80 NW7       29.92R WCI  19
WARROAD        CLOUDY    25  21  86 NW13      29.92R WCI  13
THIEF RVR FALL CLOUDY    27  21  80 N8        29.94R WCI  18
CROOKSTON      CLOUDY    27  21  80 N9        29.97R WCI  17
FOSSTON        CLOUDY    23  21  93 N8        29.92R WCI  14
DETROIT LAKES  CLOUDY    27  23  86 CALM      29.92R
MOORHEAD       CLOUDY    28  27  93 N8        29.96R WCI  20
PARK RAPIDS    CLOUDY    27  21  78 N10       29.88R WCI  17
MAHNOMEN       CLOUDY    25  22  88 N8        29.92R WCI  16
$$
MNZ006-009>011-018-025>026-260400-
   North Central Minnesota

CITY           SKY/WX    TMP DP  RH WIND       PRES   REMARKS
BAUDETTE       CLOUDY    27  22  81 NW7       29.88R WCI  19
FLAG ISLAND    CLOUDY    25  21  86 NW12      29.90R WCI  14
INTL FALLS     CLOUDY    27  22  81 NW3       29.87R
WASKISH        CLOUDY    27  23  86 CALM      29.90R
BIG FORK       CLOUDY    27  21  80 N3        29.88R
LONGVILLE      CLOUDY    28  23  80 CALM      29.87R
GRAND RAPIDS   CLOUDY    28  21  74 N8        29.86R WCI  20
CRANE LAKE     CLOUDY    27  21  80 CALM      29.88S
ORR            CLOUDY    27  19  74 NW3       29.85R
COOK           CLOUDY    28  25  86 NW3       29.87R
WALKER         CLOUDY    26  21  82 NW3       29.88R
$$
MNZ012-019>021-037-260400-
   Northeast Minnesota

CITY           SKY/WX    TMP DP  RH WIND       PRES   REMARKS
DULUTH         CLOUDY    31  25  78 N3        29.85R
ELY            CLOUDY    28  25  86 CALM      29.85R
HIBBING        CLOUDY    30  23  75 N7        29.86R WCI  23
EVELETH        CLOUDY    30  25  80 NW5       29.87R WCI  25
DULUTH HARBOR  CLOUDY    34  28  80 CALM      29.89R
TWO HARBORS    CLOUDY    34  28  80 CALM      29.85R
SILVER BAY     CLOUDY    32  25  74 CALM      29.85R
GRAND MARAIS     N/A     33  26  75 W3        29.87R
G MARAIS ARPRT CLOUDY    25  21  86 CALM      29.82R
$$
MNZ029>031-032-039>041-046>048-054>057-064-260400-
   West Central Minnesota

CITY           SKY/WX    TMP DP  RH WIND       PRES   REMARKS
FERGUS FALLS   CLOUDY    27  19  74 N9G16     29.95R WCI  17
WHEATON        CLOUDY    27  23  86 N9        29.94R WCI  17
MORRIS         LGT SNOW  28  27  93 N10       29.89R WCI  19
ALEXANDRIA     CLOUDY    29  24  82 N7        29.88R WCI  22
ELBOW LAKE     CLOUDY    28  24  86 N9        29.89R WCI  19
WADENA         CLOUDY    27  23  86 N3        29.88R
GLENWOOD       LGT SNOW  28  27  93 N8        29.88R WCI  20
APPLETON       LGT SNOW  30  28  93 N10       29.90R WCI  21
BENSON         MIX PCPN  30  28  93 NE3       29.89R
ORTONVILLE     LGT SNOW  28  25  86 N10       29.91R WCI  19
MADISON        LGT SNOW  32  30  93 N12       29.89R WCI  23
WILLMAR        LGT SNOW  32  30  93 N7        29.87S WCI  26
$$
MNZ033>034-036-042>043-049>051-058-059-260400-
   Central Minnesota

CITY           SKY/WX    TMP DP  RH WIND       PRES   REMARKS
ST CLOUD       LGT SNOW  34  30  85 NE3       29.86S FOG
SAUK CENTRE    LGT SNOW  29  26  88 N5        29.88R WCI  24
PAYNESVILLE    LGT SNOW  28  28 100 NW6       29.87R WCI  21
AITKIN         CLOUDY    32  27  80 CALM      29.86R
PINE RIVER     CLOUDY    28  25  86 NW5       29.91R WCI  23
BRAINERD       CLOUDY    30  25  81 CALM      29.88R
STAPLES        CLOUDY    28  23  80 N5        29.88R WCI  23
LONG PRAIRIE   CLOUDY    30  27  86 N3        29.88R
LITTLE FALLS   FLURRIES  32  25  74 CALM      29.88R
LITCHFIELD     MIX PCPN  34  34 100 CALM      29.86R
BUFFALO        CLOUDY    32  31  96 CALM      29.87R FOG
MAPLE LAKE     LGT SNOW  32  32  99 CALM      29.87R
$$
MNZ037-044-045-052-053-260400-
   East Central Minnesota

CITY           SKY/WX    TMP DP  RH WIND       PRES   REMARKS
PRINCETON      LGT SNOW  34  30  86 CALM      29.87S
MORA           CLOUDY    32  28  86 CALM      29.89R
CAMBRIDGE      LGT SNOW  34  27  75 CALM      29.85S
RUSH CITY      LGT RAIN  31  31  97 CALM      29.87F
MOOSE LAKE     CLOUDY    32  27  80 CALM      29.86R
HINCKLEY       CLOUDY    32  32 100 CALM      29.88R
CLOQUET        CLOUDY    30  27  86 CALM      29.86R
MCGREGOR       CLOUDY    30  27  86 CALM      29.87R
$$
MNZ071>073-080-081-089-090-097-098-260400-
   Southwest Minnesota

CITY           SKY/WX    TMP DP  RH WIND       PRES   REMARKS
MONTEVIDEO     LGT SNOW  28  28 100 NE10      29.88S WCI  19
GRANITE FALLS  LGT SNOW  30  29  96 N10       29.88S WCI  21
CANBY          LGT SNOW  29  28  96 N9        29.89R WCI  20
MARSHALL       CLOUDY    30  27  86 N15       29.85S WCI  19
REDWOOD FALLS  CLOUDY    33  31  92 N7        29.84S FOG     WCI  27
OLIVIA         CLOUDY    30  30 100 NE5       29.85S FOG     WCI  25
PIPESTONE      CLOUDY    28  28 100 NE13G21   29.79S WCI  18
WINDOM         MOCLDY    30  30 100 N10       29.80R FOG     WCI  21
WORTHINGTON    CLOUDY    30 -17  12 N13       29.79R WCI  20
JACKSON        MOCLDY    32  30  93 N10       29.79R WCI  24
TRACY          CLOUDY    32  31  98 N12       29.82F FOG     WCI  23
SLAYTON        CLOUDY    30  29  99 N13       29.80F FOG     WCI  20
$$
MNZ065>067-074>077-082>085-091>093-260400-
   South Central Minnesota

CITY           SKY/WX    TMP DP  RH WIND       PRES   REMARKS
MANKATO        MOCLDY    30  27  86 NE8       29.82R WCI  23
NEW ULM        MOCLDY    30  30 100 N6        29.82S WCI  24
ST JAMES       MOCLDY    32  30  93 N6        29.82S WCI  26
FAIRMONT       CLOUDY    32  28  86 N7        29.78S WCI  26
GLENCOE        CLOUDY    33  33  98 N7        29.84S FOG     WCI  27
FARIBAULT      CLOUDY    30  30 100 CALM      29.83R
OWATONNA       CLOUDY    32  28  86 CALM      29.82R
WASECA         MOCLDY    32  30  93 NE6       29.82R WCI  26
ALBERT LEA     MOCLDY    30  30 100 NE5       29.78F WCI  25
$$
MNZ078>079-086>088-094>096-260400-
   Southeast Minnesota

CITY           SKY/WX    TMP DP  RH WIND       PRES   REMARKS
ROCHESTER      CLOUDY    30  27  88 SE7       29.82R WCI  23
RED WING       CLOUDY    32  28  86 CALM      29.84S
STANTON        MOCLDY    32  30  92 CALM      29.83R
DODGE CENTER   CLOUDY    30  30 100 E5        29.81R WCI  25
WINONA         CLOUDY    34  32  93 CALM      29.86R
AUSTIN         MOCLDY    30  28  93 CALM      29.80S
PRESTON        MOCLDY    33  30  88 S7        29.82S WCI  27
$$
ABBREVIATIONS USED IN REMARKS
   TC - TEMPERATURES IN CELSIUS
  WCI - WIND CHILL INDEX
   HX - HEAT INDEX
  VSB - VISIBILITY
$$


USA.gov is the U.S. government's official web portal to all federal, state and local government web resources and services.